Date String (YYYY-MM-DD hh:mm:ss) UTC,Instrument flags,Ambient pressure (hPa),Sample flow (lpm),Bypass flow (lpm),Sample temperature (°C),Ambient temperature (°C),ASC tube jacket temperature (°C),LED temperature (°C),Box temperature (°C),Sample RH (%),Span deviation,Mass concentration (μg/m³),Mass concentration (μg/m³),Mass concentration (μg/m³)
DateTimeUTC,F1_M11,P_M11,Q1_M11,Q2_M11,T1_M11,T2_M11,T3_M11,T4_M11,T5_M11,U1_M11,ZSPAN_M11,X0_M11,X2_M11,X1_M11
2022-06-17 09:00:00,,0829.4,5.00,0.00,30.3,28.5,00.0,38.7,31.7,33.4,0000.0,0019.30,0007.23,0004.53
2022-06-17 09:01:00,,0829.3,4.99,0.00,30.3,28.6,00.0,38.7,31.7,33.4,0000.0,0018.91,0007.21,0004.53
2022-06-17 09:02:00,,0829.3,5.01,0.00,30.3,28.7,00.0,38.8,31.8,33.3,0000.0,0017.84,0007.15,0004.54
2022-06-17 09:03:00,,0829.3,4.99,0.00,30.3,28.8,00.0,38.8,31.8,33.4,0000.0,0017.55,0007.13,0004.54
2022-06-17 09:04:00,,0829.2,4.99,0.00,30.3,28.7,00.0,38.8,31.8,33.4,0000.0,0017.57,0007.16,0004.54
2022-06-17 09:05:00,,0829.3,5.00,0.00,30.3,28.1,00.0,38.8,31.6,33.5,0000.0,0017.70,0007.20,0004.53
2022-06-17 09:06:00,,0829.2,5.00,0.00,30.2,27.6,00.0,38.7,31.5,33.7,0000.0,0017.77,0007.17,0004.52
2022-06-17 09:07:00,,0829.2,5.00,0.00,30.1,27.5,00.0,38.7,31.4,33.9,0000.0,0017.80,0007.23,0004.53
2022-06-17 09:08:00,,0829.2,5.00,0.00,30.0,27.5,00.0,38.7,31.4,34.1,0000.0,0017.44,0007.32,0004.53
2022-06-17 09:09:00,,0829.4,4.99,0.00,30.0,27.6,00.0,38.7,31.4,34.3,0000.0,0016.37,0007.29,0004.52
2022-06-17 09:10:00,,0829.4,5.00,0.00,30.0,27.8,00.0,38.7,31.4,34.4,0000.0,0016.21,0007.26,0004.54
2022-06-17 09:11:00,,0829.2,5.01,0.00,29.9,27.9,00.0,38.7,31.4,34.5,0000.0,0016.04,0007.25,0004.55
2022-06-17 09:12:00,,0829.3,5.01,0.00,29.9,28.0,00.0,38.7,31.5,34.6,0000.0,0015.81,0007.30,0004.56
2022-06-17 09:13:00,,0829.3,4.99,0.00,29.9,28.2,00.0,38.7,31.5,34.7,0000.0,0016.21,0007.36,0004.57
2022-06-17 09:14:00,,0829.3,5.00,0.00,29.9,28.3,00.0,38.7,31.5,34.7,0000.0,0017.10,0007.46,0004.59
2022-06-17 09:15:00,,0829.2,5.00,0.00,29.9,28.4,00.0,38.7,31.6,34.8,0000.0,0017.36,0007.58,0004.61
2022-06-17 09:16:00,,0829.2,5.00,0.00,29.9,28.5,00.0,38.7,31.6,34.8,0001.2,0017.19,0007.51,0004.62
2022-06-17 09:17:00,,0829.2,5.00,0.00,30.0,28.6,00.0,38.7,31.7,34.8,0000.7,0017.00,0007.43,0004.63
2022-06-17 09:18:00,,0829.2,5.00,0.00,30.0,28.6,00.0,38.7,31.7,34.8,0001.9,0017.69,0007.43,0004.64
2022-06-17 09:19:00,,0829.2,5.00,0.00,30.0,28.7,00.0,38.7,31.7,34.9,0002.3,0019.10,0007.49,0004.66
2022-06-17 09:20:00,,0829.3,5.00,0.00,30.0,28.8,00.0,38.7,31.8,34.9,0002.1,0020.43,0007.50,0004.66
2022-06-17 09:21:00,,0829.3,5.00,0.00,30.0,28.8,00.0,38.7,31.8,34.9,0001.9,0021.01,0007.55,0004.68
2022-06-17 09:22:00,,0829.3,5.00,0.00,30.0,28.2,00.0,38.7,31.6,35.0,0002.0,0021.09,0007.52,0004.68
2022-06-17 09:23:00,,0829.2,5.00,0.00,30.0,27.6,00.0,38.6,31.5,35.1,0001.6,0021.07,0007.47,0004.68
2022-06-17 09:24:00,,0829.3,5.00,0.00,30.1,27.4,00.0,38.6,31.5,34.8,0002.4,0020.94,0007.45,0004.69
2022-06-17 09:25:00,,0829.4,4.99,0.00,30.2,27.5,00.0,38.6,31.6,34.6,0000.0,0020.58,0007.41,0004.68
2022-06-17 09:26:00,,0829.3,4.99,0.00,30.3,27.6,00.0,38.6,31.5,34.4,0000.0,0020.55,0007.30,0004.67
2022-06-17 09:27:00,,0829.4,5.01,0.00,30.3,27.7,00.0,38.6,31.5,34.4,0000.0,0020.53,0007.36,0004.67
2022-06-17 09:28:00,,0829.3,5.00,0.00,30.3,27.9,00.0,38.7,31.5,34.4,0000.0,0020.46,0007.33,0004.67
2022-06-17 09:29:00,,0829.4,5.00,0.00,30.3,28.0,00.0,38.7,31.6,34.4,0000.0,0019.84,0007.30,0004.66
2022-06-17 09:30:00,,0829.4,5.00,0.00,30.3,28.2,00.0,38.7,31.6,34.4,0000.0,0019.23,0007.26,0004.65
2022-06-17 09:31:00,,0829.3,5.01,0.00,30.3,28.3,00.0,38.7,31.6,34.4,0000.0,0017.64,0007.28,0004.67
2022-06-17 09:32:00,,0829.3,5.01,0.00,30.3,28.4,00.0,38.8,31.7,34.3,0000.0,0017.52,0007.28,0004.67
2022-06-17 09:33:00,,0829.3,4.99,0.00,30.3,28.5,00.0,38.8,31.7,34.3,0000.0,0016.95,0007.24,0004.69
2022-06-17 09:34:00,,0829.3,5.00,0.00,30.3,28.6,00.0,38.8,31.8,34.2,0000.0,0017.25,0007.20,0004.69
2022-06-17 09:35:00,,0829.3,5.01,0.00,30.3,28.7,00.0,38.8,31.7,34.2,0000.0,0017.00,0007.22,0004.70
2022-06-17 09:36:00,,0829.3,4.99,0.00,30.4,28.7,00.0,38.9,31.8,34.2,0000.0,0016.75,0007.23,0004.71
2022-06-17 09:37:00,,0829.3,5.01,0.00,30.4,28.8,00.0,38.9,31.9,34.2,0000.5,0016.18,0007.27,0004.76
2022-06-17 09:38:00,,0829.4,5.00,0.00,30.4,28.8,00.0,38.9,31.9,34.2,0002.3,0016.31,0007.31,0004.80
2022-06-17 09:39:00,,0829.3,5.00,0.00,30.3,28.3,00.0,38.9,31.8,34.3,0000.4,0016.41,0007.40,0004.83
2022-06-17 09:40:00,,0829.4,5.01,0.00,30.3,27.7,00.0,38.8,31.6,34.4,0000.0,0016.57,0007.44,0004.86
2022-06-17 09:41:00,,0829.2,5.00,0.00,30.2,27.5,00.0,38.8,31.5,34.6,0000.0,0016.02,0007.41,0004.90
2022-06-17 09:42:00,,0829.2,4.99,0.00,30.1,27.5,00.0,38.8,31.4,34.7,0000.0,0016.07,0007.38,0004.93
2022-06-17 09:43:00,,0829.2,5.00,0.00,30.0,27.6,00.0,38.8,31.4,34.8,0000.0,0016.24,0007.40,0004.94
2022-06-17 09:44:00,,0829.2,5.00,0.00,30.0,27.7,00.0,38.8,31.5,34.8,0000.0,0016.43,0007.46,0004.96
2022-06-17 09:45:00,,0829.2,5.00,0.00,30.0,27.9,00.0,38.8,31.5,34.9,0000.0,0016.33,0007.46,0004.97
2022-06-17 09:46:00,,0829.2,5.00,0.00,30.0,28.0,00.0,38.7,31.5,34.9,0000.6,0016.20,0007.44,0005.00
2022-06-17 09:47:00,,0829.1,5.00,0.00,30.0,28.1,00.0,38.7,31.5,34.8,0000.3,0016.48,0007.40,0005.00
2022-06-17 09:48:00,,0829.1,5.00,0.00,30.0,28.3,00.0,38.7,31.6,34.8,0000.0,0016.55,0007.40,0004.99
2022-06-17 09:49:00,,0829.1,5.00,0.00,30.0,28.4,00.0,38.7,31.6,34.8,0000.0,0016.60,0007.38,0004.99
2022-06-17 09:50:00,,0829.1,5.00,0.00,30.0,28.4,00.0,38.7,31.6,34.7,0000.0,0016.79,0007.41,0005.01
2022-06-17 09:51:00,,0829.1,5.00,0.00,30.0,28.5,00.0,38.7,31.7,34.7,0000.0,0016.90,0007.43,0005.01
2022-06-17 09:52:00,,0829.1,5.00,0.00,30.0,28.6,00.0,38.7,31.7,34.6,0000.2,0017.84,0007.56,0005.02
2022-06-17 09:53:00,,0829.1,5.00,0.00,30.0,28.7,00.0,38.7,31.8,34.5,0000.0,0018.08,0007.60,0005.03
2022-06-17 09:54:00,,0829.1,4.99,0.00,30.0,28.7,00.0,38.7,31.7,34.3,0000.0,0017.82,0007.60,0005.05
2022-06-17 09:55:00,,0829.1,4.99,0.00,30.0,28.8,00.0,38.8,31.8,34.2,0001.0,0017.77,0007.64,0005.07
2022-06-17 09:56:00,,0829.1,5.00,0.00,30.1,28.8,00.0,38.8,31.8,34.1,0000.8,0017.49,0007.70,0005.08
2022-06-17 09:57:00,,0829.0,5.00,0.00,30.0,28.3,00.0,38.7,31.7,34.1,0001.1,0018.07,0007.73,0005.09
2022-06-17 09:58:00,,0828.9,5.01,0.00,30.0,27.7,00.0,38.7,31.5,34.2,0001.7,0018.28,0007.84,0005.11
2022-06-17 09:59:00,,0829.0,4.99,0.00,29.9,27.4,00.0,38.6,31.4,34.3,0001.5,0018.48,0007.92,0005.13
